STARLINK-1800 (46700 NORAD) Tracking and Keplerian Element Data

This shows tracking and keplerian element data for the satellite.

Feedback or suggestion? Click here.




ElementValue
Catalog46700
NameSTARLINK-1800
Epoch Orbit1456
Epoch Day18.25002315
Epoch Year2021
RAAN40.2853
Inclination53.0547
Eccentricity0.0001722
Argument of Perigee62.4047
Mean Anonmoly0.7339
Mean Motion15.06418387
Decay Rate-0.00033249
L11 46700U 20073AG 21018.25002315 -.00033249 00000-0 -22225-2 0 9997
L22 46700 53.0547 40.2853 0001722 62.4047 0.7339 15.06418387 14561

Live tracking and technical data element details for STARLINK-1800 (NORAD 46700). STARLINK-1800 can be tracked NOW for your location showing map with azimuth and elevation plus other details from your city location.

Track the satellite on the map from your city or location and see movement details for azimuth, elevation, latitude, longitude, range, height, and movement on the map or in text.







IsCatalogInMostPopularTable: catalog: 46700, numindb: 27
Update: records affected: 1



GetName: 46700 STARLINK-1800

Hit Count: updated at: Tue, 19 Jan 2021 02:50:33 GMT